This is the latest recevied weather packets stored in our database for station/object FW0690. If no packets are shown the sender has not sent any weather packets the latest 10 day(s).
| Time | Temp. | Humidity | Pressure | Rain* | Wind** | Luminosity | Snow |
|---|---|---|---|---|---|---|---|
| 1777882838 | 21.67° C | 29% | 1015.1 hPa | - | - | 26 W/m² | - |
| 1777882478 | 20.56° C | 29% | 1015 hPa | - | - | 27 W/m² | - |
| 1777882118 | 20.56° C | 29% | 1015 hPa | - | - | 27 W/m² | - |
| 1777881758 | 20° C | 30% | 1014.9 hPa | - | - | 32 W/m² | - |
| 1777881398 | 20° C | 30% | 1015 hPa | - | - | 35 W/m² | - |
| 1777881038 | 19.44° C | 31% | 1015 hPa | - | - | 34 W/m² | - |
| 1777880678 | 18.89° C | 31% | 1015 hPa | - | - | 32 W/m² | - |
| 1777880318 | 18.89° C | 32% | 1015 hPa | - | - | 25 W/m² | - |
| 1777879958 | 18.89° C | 33% | 1014.9 hPa | - | - | 28 W/m² | - |
| 1777879598 | 18.33° C | 34% | 1014.9 hPa | - | - | 28 W/m² | - |
| 1777879238 | 18.33° C | 35% | 1014.9 hPa | - | - | 28 W/m² | - |
| 1777878878 | 17.78° C | 35% | 1014.9 hPa | - | - | 29 W/m² | - |
| 1777878518 | 17.22° C | 35% | 1014.9 hPa | - | - | 27 W/m² | - |
| 1777878158 | 17.22° C | 36% | 1014.9 hPa | - | - | 26 W/m² | - |
| 1777877798 | 16.67° C | 36% | 1014.8 hPa | - | - | 27 W/m² | - |
| 1777877438 | 16.67° C | 37% | 1014.8 hPa | - | - | 27 W/m² | - |
| 1777877078 | 16.11° C | 38% | 1014.8 hPa | - | - | 26 W/m² | - |
| 1777876718 | 16.11° C | 38% | 1014.8 hPa | - | - | 26 W/m² | - |
| 1777876358 | 15.56° C | 39% | 1014.7 hPa | - | - | 26 W/m² | - |
| 1777875998 | 15° C | 40% | 1014.7 hPa | - | - | 26 W/m² | - |
| 1777875638 | 14.44° C | 41% | 1014.7 hPa | - | - | 25 W/m² | - |
| 1777875278 | 14.44° C | 41% | 1014.7 hPa | - | - | 25 W/m² | - |
| 1777874918 | 14.44° C | 42% | 1014.8 hPa | - | - | 25 W/m² | - |
| 1777874558 | 13.89° C | 42% | 1014.8 hPa | - | - | 24 W/m² | - |
| 1777874198 | 13.33° C | 43% | 1014.8 hPa | - | - | 24 W/m² | - |
* Rain since midnight (hover to see other rain measurements)
** Current wind speed in m/s (hover to see current wind gust speed)